MESHWX-3 Weather Reports


Display with metric or nautical units.
time (UTC)temp
F
wind
direction
speed
MPH
gust
MPH
rain 1hr
in
rain 24hr
in
rain mn
in
humidity
%
barometer
mb
20260906055522 76 0.0 0.0 0.00 0.00 0.00 28 980.7
20260906055212 75 0.0 0.0 0.00 0.00 0.00 28 980.5
20260906052222 75 0.0 0.0 0.00 0.00 0.00 28 980.5
20260906051911 75 0.0 0.0 0.00 0.00 0.00 29 980.3
20260906044822 75 0.0 0.0 0.00 0.00 0.00 29 980.3
20260906044613 74 0.0 0.0 0.00 0.00 0.00 36 979.8
20260906041523 74 0.0 0.0 0.00 0.00 0.00 36 979.8
20260906041311 72 0.0 0.0 0.00 0.00 0.00 43 979.4
20260906034121 72 0.0 0.0 0.00 0.00 0.00 43 979.4
20260906033911 74 0.0 0.0 0.00 0.00 0.00 42 978.9
20260906030821 74 0.0 0.0 0.00 0.00 0.00 42 978.9
20260906030611 75 0.0 0.0 0.00 0.00 0.00 41 978.4
20260906023521 75 0.0 0.0 0.00 0.00 0.00 41 978.4
20260906023310 74 0.0 0.0 0.00 0.00 0.00 43 978.2
20260906022527 74 0.0 0.0 0.00 0.00 0.00 43 978.2
20260906020321 74 0.0 0.0 0.00 0.00 0.00 43 978.2
20260906020110 76 0.0 0.0 0.00 0.00 0.00 40 977.9
20260906013121 76 0.0 0.0 0.00 0.00 0.00 40 977.9
20260906012910 77 0.0 0.0 0.00 0.00 0.00 39 977.9
20260906005821 77 0.0 0.0 0.00 0.00 0.00 39 977.9
20260906005610 77 0.0 0.0 0.00 0.00 0.00 40 977.6
20260906002520 77 0.0 0.0 0.00 0.00 0.00 40 977.6
20260906002310 77 0.0 0.0 0.00 0.00 0.00 40 977.6
20260905235220 77 0.0 0.0 0.00 0.00 0.00 40 977.6
20260905235010 76 0.0 0.0 0.00 0.00 0.00 39 977.4
20260905231920 76 0.0 0.0 0.00 0.00 0.00 39 977.4
20260905231709 76 0.0 0.0 0.00 0.00 0.00 37 977.2
20260905224620 76 0.0 0.0 0.00 0.00 0.00 37 977.2
20260905224409 74 0.0 0.0 0.00 0.00 0.00 35 976.9
20260905221220 74 0.0 0.0 0.00 0.00 0.00 35 976.9
20260905221009 75 0.0 0.0 0.00 0.00 0.00 34 976.1
20260905213919 75 0.0 0.0 0.00 0.00 0.00 34 976.1
20260905213709 77 0.0 0.0 0.00 0.00 0.00 33 975.4
20260905210622 77 0.0 0.0 0.00 0.00 0.00 33 975.4
20260905210409 77 0.0 0.0 0.00 0.00 0.00 32 975.3
20260905203317 77 0.0 0.0 0.00 0.00 0.00 32 975.3
20260905203108 77 0.0 0.0 0.00 0.00 0.00 31 975.0
20260905201435 77 0.0 0.0 0.00 0.00 0.00 31 975.0
20260905200017 77 0.0 0.0 0.00 0.00 0.00 31 975.0
20260905195908 79 0.0 0.0 0.00 0.00 0.00 31 974.9
20260905192917 79 0.0 0.0 0.00 0.00 0.00 31 974.9
20260905192808 80 0.0 0.0 0.00 0.00 0.00 30 974.8
20260905185817 80 0.0 0.0 0.00 0.00 0.00 30 974.8
20260905185708 80 0.0 0.0 0.00 0.00 0.00 30 974.8
20260905182617 80 0.0 0.0 0.00 0.00 0.00 30 974.8
20260905182407 82 0.0 0.0 0.00 0.00 0.00 29 974.5
20260905175417 82 0.0 0.0 0.00 0.00 0.00 29 974.5
20260905175307 83 0.0 0.0 0.00 0.00 0.00 26 974.2
20260905172218 83 0.0 0.0 0.00 0.00 0.00 26 974.2
20260905172207 86 0.0 0.0 0.00 0.00 0.00 25 974.1
20260905165017 86 0.0 0.0 0.00 0.00 0.00 25 974.1
20260905165006 93 0.0 0.0 0.00 0.00 0.00 20 974.0
20260905161816 93 0.0 0.0 0.00 0.00 0.00 20 974.0
20260905161806 102 0.0 0.0 0.00 0.00 0.00 16 973.7
20260905154516 102 0.0 0.0 0.00 0.00 0.00 16 973.7
20260905154506 104 0.0 0.0 0.00 0.00 0.00 16 974.2
20260905151316 104 0.0 0.0 0.00 0.00 0.00 16 974.2
20260905151306 110 0.0 0.0 0.00 0.00 0.00 14 974.3
20260905144215 110 0.0 0.0 0.00 0.00 0.00 14 974.3
20260905144205 111 0.0 0.0 0.00 0.00 0.00 14 974.4
20260905141116 111 0.0 0.0 0.00 0.00 0.00 14 974.4
20260905141105 110 0.0 0.0 0.00 0.00 0.00 14 974.7
20260905135634 110 0.0 0.0 0.00 0.00 0.00 14 974.7
20260905134116 110 0.0 0.0 0.00 0.00 0.00 14 974.7
20260905134105 108 0.0 0.0 0.00 0.00 0.00 15 974.8
20260905131015 108 0.0 0.0 0.00 0.00 0.00 15 974.8
20260905131005 107 0.0 0.0 0.00 0.00 0.00 16 975.2
20260905123815 107 0.0 0.0 0.00 0.00 0.00 16 975.2
20260905123804 106 0.0 0.0 0.00 0.00 0.00 18 975.5
20260905120715 106 0.0 0.0 0.00 0.00 0.00 18 975.5
20260905120704 106 0.0 0.0 0.00 0.00 0.00 18 975.5
20260905113516 106 0.0 0.0 0.00 0.00 0.00 18 975.5
20260905113504 105 0.0 0.0 0.00 0.00 0.00 19 975.9
20260905110414 105 0.0 0.0 0.00 0.00 0.00 19 975.9
20260905110404 104 0.0 0.0 0.00 0.00 0.00 20 976.2
20260905103214 104 0.0 0.0 0.00 0.00 0.00 20 976.2
20260905095914 101 0.0 0.0 0.00 0.00 0.00 22 975.9
20260905095903 84 0.0 0.0 0.00 0.00 0.00 33 976.6
20260905092606 82 0.0 0.0 0.00 0.00 0.00 35 976.9
20260905085313 82 0.0 0.0 0.00 0.00 0.00 35 976.9
20260905085305 81 0.0 0.0 0.00 0.00 0.00 37 977.0
20260905082013 81 0.0 0.0 0.00 0.00 0.00 37 977.0
20260905082003 79 0.0 0.0 0.00 0.00 0.00 41 977.1
20260905075631 79 0.0 0.0 0.00 0.00 0.00 41 977.1
20260905074713 79 0.0 0.0 0.00 0.00 0.00 41 977.1
20260905074703 76 0.0 0.0 0.00 0.00 0.00 42 977.1
20260905071413 76 0.0 0.0 0.00 0.00 0.00 42 977.1
20260905071403 73 0.0 0.0 0.00 0.00 0.00 44 977.1
20260905064112 73 0.0 0.0 0.00 0.00 0.00 44 977.1
20260905064004 71 0.0 0.0 0.00 0.00 0.00 47 977.1
20260905060612 71 0.0 0.0 0.00 0.00 0.00 47 977.1
20260905060502 69 0.0 0.0 0.00 0.00 0.00 49 977.1